Volver al catálogo

SL-14 DEB

ActivoPO
NORAD 26026·DEBRIS·🇷🇺 Russia

Lanzado Sep 28, 1991 desde Plesetsk Cosmodrome

Loading…

Próximos Pases (próximas 24 horas)

TLE

ActualizadoSource: Space-Track

Época: Sep 14, 2026, 08:57 UTC

1 26026U 91068AM  26257.37298241  .00000074  00000-0  34795-3 0  9990
2 26026  82.5079 236.2281 0093653 303.0108 212.3420 12.63623946248284

Sigue SL-14 DEB en tiempo real con AllMySat

Download on the App Store